TimeCDT,TemperatureF,Dew PointF,Humidity,Sea Level PressureIn,VisibilityMPH,Wind Direction,Wind SpeedMPH,Gust SpeedMPH,PrecipitationIn,Events,Conditions,WindDirDegrees,DateUTC
12:15 AM,36.9,33.1,86,30.08,10.0,NNW,3.5,-,N/A,,Overcast,340,2013-04-09 05:15:00
12:35 AM,36.7,32.9,86,30.08,10.0,North,8.1,-,N/A,,Overcast,10,2013-04-09 05:35:00
12:56 AM,36.7,33.1,87,30.08,10.0,North,6.9,-,N/A,,Overcast,10,2013-04-09 05:56:00
1:15 AM,36.3,32.9,87,30.07,10.0,NNE,8.1,-,N/A,,Overcast,20,2013-04-09 06:15:00
1:35 AM,36.1,32.9,88,30.06,10.0,NNE,8.1,-,N/A,,Overcast,30,2013-04-09 06:35:00
1:55 AM,36.0,32.5,87,30.06,10.0,NNE,6.9,-,N/A,,Overcast,20,2013-04-09 06:55:00
2:15 AM,35.4,32.0,87,30.04,10.0,NNE,8.1,-,N/A,,Overcast,20,2013-04-09 07:15:00
2:36 AM,34.7,32.0,90,30.06,10.0,North,6.9,-,N/A,,Mostly Cloudy,10,2013-04-09 07:36:00
2:55 AM,34.7,31.8,89,30.05,10.0,North,6.9,-,N/A,,Mostly Cloudy,10,2013-04-09 07:55:00
3:15 AM,35.1,32.0,89,30.05,10.0,North,5.8,-,N/A,,Overcast,360,2013-04-09 08:15:00
3:35 AM,35.6,32.0,87,30.03,10.0,North,9.2,-,N/A,,Overcast,10,2013-04-09 08:35:00
3:55 AM,35.6,32.0,87,30.03,10.0,North,9.2,-,N/A,,Overcast,10,2013-04-09 08:55:00
4:15 AM,35.4,31.3,85,30.05,10.0,North,9.2,-,N/A,,Overcast,10,2013-04-09 09:15:00
4:35 AM,34.7,30.9,86,30.08,10.0,North,6.9,-,N/A,,Overcast,10,2013-04-09 09:35:00
4:55 AM,34.5,31.1,87,30.11,10.0,North,3.5,-,N/A,,Overcast,10,2013-04-09 09:55:00
5:15 AM,34.7,31.3,87,30.11,10.0,North,5.8,-,N/A,,Overcast,10,2013-04-09 10:15:00
5:35 AM,34.3,30.9,87,30.09,10.0,North,9.2,-,N/A,,Overcast,360,2013-04-09 10:35:00
5:55 AM,33.8,30.7,89,30.08,10.0,North,11.5,-,N/A,,Mostly Cloudy,10,2013-04-09 10:55:00
6:15 AM,33.3,30.2,89,30.08,10.0,North,11.5,17.3,N/A,,Scattered Clouds,360,2013-04-09 11:15:00
6:35 AM,32.9,29.7,88,30.09,10.0,North,10.4,-,N/A,,Mostly Cloudy,10,2013-04-09 11:35:00
6:55 AM,32.2,28.4,86,30.10,10.0,North,9.2,-,N/A,,Scattered Clouds,360,2013-04-09 11:55:00
7:15 AM,32.0,27.5,83,30.10,10.0,North,13.8,-,N/A,,Scattered Clouds,10,2013-04-09 12:15:00
7:36 AM,32.2,26.8,80,30.10,10.0,North,12.7,17.3,N/A,,Mostly Cloudy,360,2013-04-09 12:36:00
7:55 AM,32.2,26.6,80,30.10,10.0,North,12.7,18.4,N/A,,Overcast,10,2013-04-09 12:55:00
8:15 AM,32.2,26.4,79,30.11,10.0,North,11.5,-,N/A,,Overcast,10,2013-04-09 13:15:00
8:36 AM,32.4,26.4,79,30.10,10.0,North,11.5,16.1,N/A,,Overcast,10,2013-04-09 13:36:00
8:55 AM,32.5,26.2,78,30.09,10.0,North,10.4,17.3,N/A,,Mostly Cloudy,10,2013-04-09 13:55:00
9:15 AM,32.9,26.2,76,30.08,10.0,North,11.5,17.3,N/A,,Overcast,10,2013-04-09 14:15:00
9:36 AM,33.3,26.1,75,30.09,10.0,North,12.7,-,N/A,,Overcast,10,2013-04-09 14:36:00
9:55 AM,33.4,25.7,73,30.10,10.0,North,16.1,-,N/A,,Overcast,10,2013-04-09 14:55:00
10:15 AM,33.8,25.5,72,30.09,10.0,NNE,15.0,20.7,N/A,,Overcast,20,2013-04-09 15:15:00
10:36 AM,33.8,25.7,72,30.11,10.0,NNE,15.0,18.4,N/A,,Overcast,20,2013-04-09 15:36:00
10:55 AM,34.2,25.7,71,30.10,10.0,NNE,16.1,20.7,N/A,,Overcast,20,2013-04-09 15:55:00
11:15 AM,34.3,25.9,71,30.11,10.0,North,10.4,19.6,N/A,,Overcast,360,2013-04-09 16:15:00
11:36 AM,34.0,25.5,71,30.12,10.0,North,11.5,-,N/A,,Overcast,360,2013-04-09 16:36:00
11:55 AM,34.2,25.5,71,30.13,10.0,North,12.7,-,N/A,,Overcast,10,2013-04-09 16:55:00
12:15 PM,34.7,25.5,69,30.14,10.0,North,12.7,-,N/A,,Overcast,10,2013-04-09 17:15:00
12:36 PM,35.2,25.5,68,30.14,10.0,North,13.8,-,N/A,,Overcast,10,2013-04-09 17:36:00
12:55 PM,36.5,25.7,65,30.13,10.0,North,17.3,-,N/A,,Overcast,10,2013-04-09 17:55:00
1:16 PM,37.4,25.9,63,30.12,10.0,NNE,12.7,19.6,N/A,,Overcast,20,2013-04-09 18:16:00
1:35 PM,38.7,26.2,61,30.09,10.0,NNE,15.0,23.0,N/A,,Overcast,20,2013-04-09 18:35:00
1:55 PM,40.3,26.8,59,30.09,10.0,NNE,18.4,24.2,N/A,,Scattered Clouds,30,2013-04-09 18:55:00
2:15 PM,40.8,26.1,56,30.10,10.0,NNE,13.8,19.6,N/A,,Clear,20,2013-04-09 19:15:00
2:35 PM,41.0,25.9,55,30.09,10.0,NE,16.1,19.6,N/A,,Mostly Cloudy,40,2013-04-09 19:35:00
2:55 PM,41.7,26.2,54,30.09,10.0,NNE,17.3,23.0,N/A,,Overcast,30,2013-04-09 19:55:00
3:15 PM,41.9,25.9,53,30.08,10.0,NNE,13.8,21.9,N/A,,Mostly Cloudy,30,2013-04-09 20:15:00
3:36 PM,41.9,26.1,53,30.07,10.0,NNE,16.1,21.9,N/A,,Overcast,20,2013-04-09 20:36:00
3:55 PM,42.3,25.7,52,30.08,10.0,NNE,18.4,24.2,N/A,,Overcast,30,2013-04-09 20:55:00
4:15 PM,42.1,26.2,53,30.07,10.0,NE,16.1,21.9,N/A,,Overcast,40,2013-04-09 21:15:00
4:36 PM,42.8,25.9,51,30.07,10.0,NE,17.3,23.0,N/A,,Overcast,40,2013-04-09 21:36:00
4:55 PM,41.9,25.0,51,30.10,10.0,NNE,16.1,21.9,N/A,,Overcast,30,2013-04-09 21:55:00
5:15 PM,41.2,25.3,53,30.12,10.0,NNE,12.7,18.4,N/A,,Overcast,20,2013-04-09 22:15:00
5:36 PM,41.0,24.6,52,30.14,10.0,NNE,11.5,16.1,N/A,,Overcast,30,2013-04-09 22:36:00
5:55 PM,40.6,24.8,53,30.14,10.0,NE,10.4,19.6,N/A,,Overcast,40,2013-04-09 22:55:00
6:15 PM,40.5,24.1,52,30.13,10.0,NNE,11.5,20.7,N/A,,Overcast,20,2013-04-09 23:15:00
6:35 PM,40.3,23.9,52,30.12,10.0,NE,15.0,19.6,N/A,,Overcast,40,2013-04-09 23:35:00
6:55 PM,40.1,23.4,51,30.11,10.0,NE,12.7,19.6,N/A,,Overcast,40,2013-04-09 23:55:00
7:15 PM,39.6,22.5,50,30.11,10.0,NE,12.7,21.9,N/A,,Overcast,40,2013-04-10 00:15:00
7:35 PM,39.2,25.5,58,30.11,10.0,ENE,5.8,-,N/A,,Overcast,70,2013-04-10 00:35:00
7:55 PM,38.5,26.2,61,30.11,10.0,ENE,6.9,-,N/A,,Overcast,60,2013-04-10 00:55:00
8:15 PM,38.5,25.7,60,30.13,10.0,ENE,8.1,16.1,N/A,,Overcast,70,2013-04-10 01:15:00
8:35 PM,37.9,25.5,61,30.13,10.0,NE,11.5,-,N/A,,Overcast,50,2013-04-10 01:35:00
8:55 PM,37.6,25.0,60,30.12,10.0,NE,10.4,-,N/A,,Overcast,50,2013-04-10 01:55:00
9:15 PM,37.4,24.6,60,30.13,10.0,NE,11.5,17.3,N/A,,Overcast,50,2013-04-10 02:15:00
9:55 PM,36.5,22.1,56,30.11,10.0,NE,11.5,-,N/A,,Mostly Cloudy,50,2013-04-10 02:55:00
10:16 PM,36.0,21.2,55,30.11,10.0,NE,13.8,17.3,N/A,,Overcast,40,2013-04-10 03:16:00
10:35 PM,36.0,20.7,54,30.12,10.0,NE,10.4,18.4,N/A,,Overcast,40,2013-04-10 03:35:00
10:55 PM,35.6,20.3,54,30.13,10.0,NE,10.4,16.1,N/A,,Overcast,40,2013-04-10 03:55:00
11:16 PM,35.6,20.8,55,30.17,10.0,NE,9.2,-,N/A,,Overcast,40,2013-04-10 04:16:00
11:35 PM,35.2,20.1,54,30.19,10.0,ENE,8.1,-,N/A,,Overcast,70,2013-04-10 04:35:00
11:55 PM,35.1,19.9,54,30.20,10.0,NE,8.1,-,N/A,,Overcast,40,2013-04-10 04:55:00